Content
SEND FEEDBACK

Daily
Averages
Monthly
Summary
United States of America

CUSTER, MICHIGAN


Home > North America > United States > Michigan
Elevation: 680 feet     Latitude: 43 57N     Longitude: 086 17W

WEATHER
 
SELECT A DAY
Number of Records: 373,361;   Date Range: 10/15/99 - 10/19/14
 
SHARE

PRINT THIS DATA

[ ← Previous Day ]
WEATHER ALMANAC - JANUARY 3, 2013
[ Next Day → ]
[ °C ]   °F
Weather ElementAverageHighLow
Temperature29.1 °F30.2 °F (2:15 am)27.9 °F (12:35 am)
Dewpoint21.7 °F23.9 °F (3:34 am)19.9 °F (9:35 am)
Humidity74.1 %78 % (1:34 am)69 % (6:15 pm)
Barometer30.06 in30.13 in (7:55 pm)29.99 in (5:15 am)
Wind Speed8 mph17.3 mph (10:35 pm)
Wind Gust23 mph (11:35 pm)
Weather ElementAverage
Visibility7.7 mi
Wind DirectionW (275.3 °)

Weather ElementTotal
Precipitation---
Heating Degree Days36 (Base 65)
Averaged from 70 records on January 3, 2013
WEATHER CONDITIONS BREAKOUT
WIND DIRECTION BREAKOUT
WEATHER BY HOUR - JANUARY 3, 2013
[ °C ]   °F
Local TimeTemperatureDewpointHumidityBarometerVisibilityWind DirectionWind SpeedGust SpeedPrecipitationEventsConditions
12:35 AM27.9 °F21.2 °F76 %30.03 in7.0 miSouth (170°)6.9 mphSnowLight Snow
12:55 AM27.9 °F21.6 °F77 %30.02 in7.0 miSSE (150°)5.8 mphSnowLight Snow
1:15 AM27.9 °F21.6 °F77 %30.02 in10.0 miSouth (170°)6.9 mphSnowLight Snow
1:34 AM27.9 °F21.7 °F78 %30.02 in10.0 miSSW (200°)6.9 mphOvercast
1:55 AM27.9 °F21.6 °F77 %30.02 in10.0 miSSW (200°)4.6 mphOvercast
2:15 AM30.2 °F23.0 °F75 %30.01 in10.0 miWSW (240°)10.4 mphOvercast
2:34 AM30.2 °F23.0 °F75 %30.02 in7.0 miWSW (250°)9.2 mphSnowLight Snow
2:55 AM30.2 °F23.0 °F75 %30.02 in7.0 miWSW (250°)9.2 mphSnowLight Snow
3:15 AM30.2 °F23.5 °F76 %30.02 in4.0 miWest (280°)5.8 mphSnowLight Snow
3:34 AM30.2 °F23.9 °F77 %30.02 in4.0 miWest (260°)4.6 mphSnowLight Snow
3:55 AM30.2 °F23.9 °F77 %30.02 in4.0 miWNW (290°)5.8 mphSnowLight Snow
4:15 AM30.2 °F23.7 °F77 %30.01 in7.0 miWNW (290°)4.6 mphSnowLight Snow
4:34 AM29.5 °F22.6 °F76 %30.00 in7.0 miWest (260°)5.8 mphOvercast
4:55 AM27.9 °F21.2 °F76 %30.00 in7.0 miWest (260°)5.8 mphOvercast
5:15 AM27.9 °F20.8 °F75 %29.99 in7.0 miWest (270°)5.8 mphOvercast
5:35 AM27.9 °F20.8 °F75 %29.99 in7.0 miWest (270°)5.8 mphOvercast
5:55 AM27.9 °F20.7 °F74 %29.99 in7.0 miWest (270°)3.5 mphOvercast
6:15 AM27.9 °F20.3 °F73 %30.00 in10.0 miWest (280°)4.6 mphOvercast
6:35 AM27.9 °F20.1 °F73 %30.00 in7.0 miWest (280°)6.9 mphOvercast
6:55 AM27.9 °F20.1 °F73 %30.01 in10.0 miWest (260°)5.8 mphOvercast
7:14 AM27.9 °F20.3 °F73 %30.01 in10.0 miWest (280°)8.1 mphOvercast
7:35 AM27.9 °F20.3 °F73 %30.02 in7.0 miWest (270°)8.1 mphOvercast
7:55 AM27.9 °F20.1 °F73 %30.03 in7.0 miWNW (290°)9.2 mphSnowLight Snow
8:14 AM27.9 °F20.1 °F73 %30.02 in7.0 miWNW (290°)6.9 mphOvercast
8:35 AM27.9 °F20.5 °F74 %30.03 in7.0 miWNW (300°)6.9 mphOvercast
8:55 AM27.9 °F20.3 °F73 %30.04 in7.0 miWNW (300°)9.2 mphOvercast
9:14 AM27.9 °F20.1 °F73 %30.04 in7.0 miWNW (300°)6.9 mphOvercast
9:35 AM27.9 °F19.9 °F72 %30.04 in5.0 miWest (280°)6.9 mphSnowLight Snow
9:55 AM27.9 °F20.3 °F73 %30.04 in5.0 miWest (270°)5.8 mphSnowLight Snow
10:14 AM27.9 °F20.7 °F74 %30.04 in5.0 miWest (270°)8.1 mphSnowLight Snow
10:35 AM27.9 °F20.8 °F75 %30.05 in5.0 miWNW (290°)8.1 mphSnowLight Snow
10:55 AM27.9 °F21.0 °F75 %30.06 in5.0 miWest (280°)6.9 mphHaze
11:14 AM27.9 °F21.0 °F75 %30.06 in5.0 miWNW (290°)9.2 mphSnowLight Snow
11:35 AM27.9 °F21.2 °F76 %30.06 in3.0 miWNW (290°)9.2 mphSnowLight Snow
11:55 AM27.9 °F21.4 °F77 %30.07 in2.5 miNW (310°)8.1 mphSnowLight Snow
12:15 PM27.9 °F21.2 °F76 %30.07 in4.0 miNW (310°)9.2 mphSnowLight Snow
12:35 PM27.9 °F20.5 °F74 %30.06 in7.0 miWNW (300°)8.1 mphOvercast
12:55 PM27.9 °F20.7 °F74 %30.05 in7.0 miNW (320°)3.5 mphOvercast
1:15 PM27.9 °F20.7 °F74 %30.05 in7.0 miNW (320°)9.2 mphOvercast
1:35 PM30.2 °F23.0 °F75 %30.05 in7.0 miNW (320°)5.8 mphOvercast
1:55 PM30.2 °F22.8 °F74 %30.05 in7.0 miWNW (300°)4.6 mphOvercast
2:15 PM30.2 °F23.0 °F75 %30.05 in7.0 miNW (320°)5.8 mphOvercast
2:35 PM30.2 °F23.0 °F75 %30.05 in7.0 miNW (310°)9.2 mphOvercast
2:54 PM30.2 °F23.0 °F75 %30.06 in7.0 miWNW (300°)9.2 mphOvercast
3:15 PM30.2 °F23.0 °F75 %30.06 in7.0 miWNW (300°)9.2 mphOvercast
3:35 PM30.2 °F23.0 °F75 %30.07 in7.0 miNW (310°)6.9 mphOvercast
3:54 PM30.2 °F23.0 °F75 %30.08 in7.0 miWNW (300°)5.8 mphOvercast
4:35 PM30.2 °F22.6 °F73 %30.09 in10.0 miWNW (300°)5.8 mphOvercast
4:54 PM30.2 °F21.7 °F71 %30.09 in10.0 miWNW (300°)8.1 mphOvercast
5:15 PM30.2 °F21.7 °F71 %30.10 in10.0 miWNW (300°)6.9 mphOvercast
5:34 PM30.2 °F21.9 °F71 %30.10 in10.0 miWNW (300°)5.8 mphOvercast
5:55 PM30.2 °F21.7 °F71 %30.11 in10.0 miWest (270°)4.6 mphOvercast
6:15 PM30.2 °F21.2 °F69 %30.12 in10.0 miWNW (290°)4.6 mphOvercast
6:34 PM30.2 °F21.6 °F70 %30.12 in10.0 miWest (280°)8.1 mphOvercast
6:55 PM30.2 °F21.7 °F71 %30.12 in10.0 miWNW (300°)9.2 mphOvercast
7:15 PM30.2 °F21.9 °F71 %30.12 in10.0 miWest (280°)9.2 mphOvercast
7:35 PM30.2 °F22.1 °F72 %30.12 in10.0 miWest (270°)10.4 mphOvercast
7:55 PM30.2 °F22.6 °F73 %30.13 in10.0 miWest (270°)8.1 mph16.1 mphOvercast
8:15 PM30.2 °F23.0 °F75 %30.13 in7.0 miWNW (290°)9.2 mph20.7 mphOvercast
8:35 PM28.0 °F21.0 °F75 %30.13 in7.0 miWest (280°)11.5 mph18.4 mphOvercast
8:55 PM27.9 °F21.0 °F75 %30.12 in7.0 miWest (270°)13.8 mph21.9 mphOvercast
9:14 PM30.2 °F23.0 °F75 %30.12 in10.0 miWest (270°)10.4 mph19.6 mphOvercast
9:35 PM30.2 °F22.6 °F73 %30.11 in10.0 miWest (260°)11.5 mph19.6 mphOvercast
9:54 PM30.2 °F22.1 °F72 %30.11 in10.0 miWSW (250°)12.7 mph20.7 mphOvercast
10:15 PM30.2 °F22.3 °F72 %30.11 in10.0 miWest (260°)11.5 mph20.7 mphOvercast
10:35 PM30.2 °F22.5 °F73 %30.10 in10.0 miWSW (250°)17.3 mph20.7 mphOvercast
10:54 PM30.2 °F22.3 °F72 %30.10 in10.0 miWest (280°)10.4 mph17.3 mphOvercast
11:15 PM30.2 °F22.5 °F73 %30.10 in10.0 miWest (260°)15.0 mph21.9 mphOvercast
11:35 PM30.2 °F22.8 °F74 %30.10 in10.0 miWest (260°)11.5 mph23.0 mphOvercast
11:55 PM30.2 °F23.0 °F75 %30.09 in10.0 miWest (260°)13.8 mph19.6 mphOvercast
Hourly data recorded from KLDM, located miles away from Custer, Michigan







STORIES FROM OUR PARTNERS